• In Russia
  • List of Countries
  • For 7 days
  • Water Temperature
  • Satellite Maps
  • Weather Map
  • Weather Widgets
  • user-avatar
    Login

    Hourly Weather Solden

    Today, 23 September, Sunday

    Time Temperature Precipitation Wind Pressure Humidity
    00:00 +9°C° 0.1 mm 1 mps 587 mmHg 83%
    01:00 +9°C° 0 mm 1 mps 587 mmHg 81%
    02:00 +9°C° 0.2 mm 1 mps 587 mmHg 81%
    03:00 +9°C° 0.2 mm 1 mps 587 mmHg 81%
    04:00 +9°C° 0.2 mm 1 mps 587 mmHg 81%
    05:00 +9°C° 0 mm 1 mps 587 mmHg 81%
    06:00 +9°C° 0 mm 1 mps 586 mmHg 81%
    07:00 +10°C° 0 mm 1 mps 587 mmHg 78%
    08:00 +12°C° 0 mm 1 mps 587 mmHg 72%
    09:00 +13°C° 0 mm 2 mps 588 mmHg 66%
    10:00 +15°C° 0 mm 2 mps 589 mmHg 60%
    11:00 +16°C° 0.1 mm 2 mps 589 mmHg 58%
    12:00 +17°C° 0.1 mm 2 mps 589 mmHg 56%
    13:00 +18°C° 0.1 mm 3 mps 590 mmHg 54%
    14:00 +17°C° 0.4 mm 3 mps 589 mmHg 59%
    15:00 +16°C° 0.4 mm 3 mps 588 mmHg 64%
    16:00 +14°C° 0.4 mm 3 mps 587 mmHg 69%
    17:00 +13°C° 0.6 mm 3 mps 586 mmHg 77%
    18:00 +12°C° 0.6 mm 2 mps 585 mmHg 84%
    19:00 +10°C° 0.6 mm 2 mps 584 mmHg 92%
    20:00 +10°C° 0.8 mm 2 mps 584 mmHg 93%
    21:00 +9°C° 0.8 mm 2 mps 584 mmHg 93%
    22:00 +9°C° 0.8 mm 2 mps 584 mmHg 94%
    23:00 +8°C° 1.4 mm 2 mps 584 mmHg 94%

    Tomorrow, 24 September, Monday

    Time Temperature Precipitation Wind Pressure Humidity
    00:00 +8°C° 1.4 mm 3 mps 584 mmHg 94%
    01:00 +7°C° 1.4 mm 3 mps 584 mmHg 95%
    02:00 +5°C° 0.6 mm 3 mps 584 mmHg 93%
    03:00 +4°C° 0.6 mm 3 mps 583 mmHg 92%
    04:00 +3°C° 0.6 mm 4 mps 583 mmHg 90%
    05:00 +1°C° 0 mm 4 mps 584 mmHg 88%
    06:00 0°C° 0 mm 4 mps 584 mmHg 86%
    07:00 -1°C° 0 mm 4 mps 584 mmHg 84%
    08:00 0°C° 0 mm 4 mps 585 mmHg 74%
    09:00 +1°C° 0 mm 4 mps 587 mmHg 65%
    10:00 +3°C° 0 mm 4 mps 588 mmHg 56%
    11:00 +4°C° 0 mm 3 mps 589 mmHg 51%
    12:00 +5°C° 0 mm 3 mps 589 mmHg 47%
    13:00 +7°C° 0 mm 3 mps 590 mmHg 43%
    14:00 +7°C° 0 mm 3 mps 590 mmHg 44%
    15:00 +5°C° 0 mm 3 mps 590 mmHg 45%
    16:00 +5°C° 0 mm 3 mps 590 mmHg 46%
    17:00 +3°C° 0 mm 3 mps 589 mmHg 55%
    18:00 +1°C° 0 mm 3 mps 589 mmHg 64%
    19:00 -1°C° 0 mm 2 mps 588 mmHg 73%
    20:00 -2°C° 0 mm 2 mps 589 mmHg 74%
    21:00 -2°C° 0 mm 2 mps 589 mmHg 76%
    22:00 -3°C° 0 mm 2 mps 589 mmHg 78%
    23:00 -4°C° 0 mm 2 mps 589 mmHg 78%

    Day after tomorrow, 25 September, Tuesday

    Time Temperature Precipitation Wind Pressure Humidity
    00:00 -2°C° 0 mm 1 mps 589 mmHg 77%
    01:00 -2°C° 0 mm 1 mps 589 mmHg 76%
    02:00 -2°C° 0 mm 1 mps 589 mmHg 73%
    03:00 -3°C° 0 mm 1 mps 588 mmHg 70%
    04:00 -3°C° 0 mm 1 mps 588 mmHg 67%
    05:00 -2°C° 0 mm 1 mps 589 mmHg 63%
    06:00 -2°C° 0 mm 1 mps 589 mmHg 59%
    07:00 -1°C° 0 mm 1 mps 589 mmHg 55%
    08:00 +2°C° 0 mm 1 mps 591 mmHg 47%
    09:00 +4°C° 0 mm 1 mps 592 mmHg 39%
    10:00 +7°C° 0 mm 1 mps 593 mmHg 32%
    11:00 +8°C° 0 mm 1 mps 594 mmHg 31%
    12:00 +8°C° 0 mm 2 mps 594 mmHg 31%
    13:00 +9°C° 0 mm 2 mps 594 mmHg 31%
    14:00 +9°C° 0 mm 2 mps 594 mmHg 34%
    15:00 +8°C° 0 mm 2 mps 593 mmHg 38%
    16:00 +8°C° 0 mm 2 mps 593 mmHg 42%
    17:00 +5°C° 0 mm 2 mps 592 mmHg 55%
    18:00 +3°C° 0 mm 1 mps 591 mmHg 69%
    19:00 +1°C° 0 mm 1 mps 590 mmHg 82%
    20:00 +1°C° 0 mm 1 mps 590 mmHg 83%
    21:00 0°C° 0 mm 1 mps 591 mmHg 83%
    22:00 0°C° 0 mm 1 mps 591 mmHg 84%
    23:00 0°C° 0 mm 1 mps 591 mmHg 85%

    26 September, Wednesday

    Time Temperature Precipitation Wind Pressure Humidity
    00:00 0°C° 0 mm 1 mps 591 mmHg 86%
    01:00 0°C° 0 mm 1 mps 591 mmHg 87%
    02:00 0°C° 0 mm 1 mps 591 mmHg 87%
    03:00 0°C° 0 mm 1 mps 590 mmHg 86%
    04:00 0°C° 0 mm 1 mps 590 mmHg 86%
    05:00 0°C° 0 mm 1 mps 590 mmHg 83%
    06:00 +1°C° 0 mm 1 mps 591 mmHg 79%
    07:00 +1°C° 0 mm 1 mps 591 mmHg 75%
    08:00 +4°C° 0 mm 1 mps 592 mmHg 62%
    09:00 +7°C° 0 mm 1 mps 594 mmHg 49%
    10:00 +11°C° 0 mm 1 mps 595 mmHg 36%
    11:00 +12°C° 0 mm 1 mps 595 mmHg 34%
    12:00 +13°C° 0 mm 1 mps 596 mmHg 33%
    13:00 +14°C° 0 mm 1 mps 596 mmHg 31%
    14:00 +13°C° 0 mm 1 mps 596 mmHg 34%
    15:00 +13°C° 0 mm 2 mps 595 mmHg 38%
    16:00 +13°C° 0 mm 2 mps 595 mmHg 41%
    17:00 +10°C° 0 mm 1 mps 594 mmHg 53%
    18:00 +7°C° 0 mm 1 mps 592 mmHg 65%
    19:00 +4°C° 0 mm 1 mps 591 mmHg 77%
    20:00 +4°C° 0 mm 1 mps 591 mmHg 76%
    21:00 +3°C° 0 mm 1 mps 591 mmHg 75%
    22:00 +3°C° 0 mm 1 mps 591 mmHg 74%
    23:00 +3°C° 0 mm 1 mps 591 mmHg 73%

    27 September, Thursday

    Time Temperature Precipitation Wind Pressure Humidity
    00:00 +3°C° 0 mm 1 mps 591 mmHg 71%
    01:00 +3°C° 0 mm 1 mps 591 mmHg 70%
    02:00 +3°C° 0 mm 1 mps 590 mmHg 67%
    03:00 +3°C° 0 mm 1 mps 590 mmHg 65%
    04:00 +3°C° 0 mm 1 mps 590 mmHg 62%
    05:00 +4°C° 0 mm 1 mps 590 mmHg 59%
    06:00 +4°C° 0 mm 1 mps 591 mmHg 56%
    07:00 +5°C° 0 mm 1 mps 591 mmHg 53%
    08:00 +8°C° 0 mm 1 mps 592 mmHg 45%
    09:00 +11°C° 0 mm 1 mps 594 mmHg 37%
    10:00 +14°C° 0 mm 0 mps 595 mmHg 29%
    11:00 +15°C° 0 mm 1 mps 595 mmHg 29%
    12:00 +16°C° 0 mm 1 mps 595 mmHg 29%
    13:00 +18°C° 0 mm 1 mps 595 mmHg 28%
    14:00 +16°C° 0 mm 1 mps 595 mmHg 32%
    15:00 +16°C° 0 mm 1 mps 594 mmHg 36%
    16:00 +15°C° 0 mm 1 mps 594 mmHg 41%
    17:00 +12°C° 0 mm 1 mps 592 mmHg 53%
    18:00 +9°C° 0 mm 1 mps 590 mmHg 66%
    19:00 +6°C° 0 mm 1 mps 589 mmHg 79%
    20:00 +6°C° 0 mm 1 mps 589 mmHg 79%
    21:00 +5°C° 0 mm 1 mps 589 mmHg 80%
    22:00 +5°C° 0 mm 1 mps 588 mmHg 80%
    23:00 +5°C° 0 mm 1 mps 588 mmHg 79%

    28 September, Friday

    Time Temperature Precipitation Wind Pressure Humidity
    00:00 +5°C° 0 mm 1 mps 588 mmHg 78%
    01:00 +5°C° 0 mm 1 mps 587 mmHg 77%
    02:00 +4°C° 0 mm 1 mps 587 mmHg 75%
    03:00 +4°C° 0 mm 1 mps 587 mmHg 74%
    04:00 +4°C° 0 mm 1 mps 586 mmHg 72%
    05:00 +5°C° 0 mm 1 mps 586 mmHg 69%
    06:00 +5°C° 0 mm 1 mps 586 mmHg 66%
    07:00 +5°C° 0 mm 1 mps 586 mmHg 63%
    08:00 +8°C° 0 mm 1 mps 588 mmHg 54%
    09:00 +11°C° 0 mm 1 mps 589 mmHg 45%
    10:00 +15°C° 0 mm 1 mps 590 mmHg 36%
    11:00 +15°C° 0 mm 1 mps 590 mmHg 35%
    12:00 +16°C° 0 mm 1 mps 590 mmHg 34%
    13:00 +18°C° 0 mm 1 mps 590 mmHg 33%
    14:00 +16°C° 0 mm 1 mps 590 mmHg 37%
    15:00 +16°C° 0 mm 2 mps 589 mmHg 40%
    16:00 +15°C° 0 mm 2 mps 588 mmHg 44%
    17:00 +12°C° 0 mm 1 mps 587 mmHg 57%
    18:00 +9°C° 0 mm 1 mps 586 mmHg 70%
    19:00 +6°C° 0 mm 1 mps 584 mmHg 83%
    20:00 +6°C° 0 mm 1 mps 584 mmHg 85%
    21:00 +4°C° 0 mm 0 mps 584 mmHg 86%
    22:00 +4°C° 0 mm 0 mps 584 mmHg 88%
    23:00 +4°C° 0 mm 0 mps 584 mmHg 88%
    Show more